• Em Portugal
  • Lista de países
  • Para 7 dias
  • Temperatura da água
  • Mapas de satélite
  • Mapa do tempo
  • Widgets de tempo
  • user-avatar
    Iniciar Sessão

    Previsão horária em Uige

    Hoje, 23 Setembro, Domingo

    Tempo Temperatura Precipitação Vento Pressão Humidade
    00:00 +24°C° 0 mm 2 m/s 690 mmHg 81%
    01:00 +23°C° 0 mm 1 m/s 690 mmHg 85%
    02:00 +23°C° 0 mm 1 m/s 690 mmHg 86%
    03:00 +22°C° 0 mm 1 m/s 690 mmHg 88%
    04:00 +22°C° 0 mm 1 m/s 690 mmHg 90%
    05:00 +22°C° 0 mm 1 m/s 690 mmHg 88%
    06:00 +23°C° 0 mm 1 m/s 690 mmHg 86%
    07:00 +23°C° 0 mm 1 m/s 691 mmHg 81%
    08:00 +26°C° 0 mm 1 m/s 691 mmHg 71%
    09:00 +28°C° 0 mm 2 m/s 692 mmHg 61%
    10:00 +31°C° 0 mm 2 m/s 692 mmHg 50%
    11:00 +32°C° 0 mm 2 m/s 691 mmHg 45%
    12:00 +34°C° 0 mm 1 m/s 691 mmHg 40%
    13:00 +33°C° 0 mm 1 m/s 690 mmHg 39%
    14:00 +32°C° 0.3 mm 1 m/s 690 mmHg 44%
    15:00 +31°C° 0.3 mm 1 m/s 689 mmHg 49%
    16:00 +30°C° 0.3 mm 1 m/s 689 mmHg 55%
    17:00 +29°C° 0.4 mm 1 m/s 689 mmHg 60%
    18:00 +27°C° 0.4 mm 1 m/s 689 mmHg 66%
    19:00 +26°C° 0.4 mm 1 m/s 689 mmHg 72%
    20:00 +25°C° 0.4 mm 2 m/s 690 mmHg 75%
    21:00 +25°C° 0.4 mm 2 m/s 690 mmHg 78%
    22:00 +24°C° 0.4 mm 2 m/s 691 mmHg 81%
    23:00 +23°C° 0 mm 2 m/s 691 mmHg 84%

    Amanhã, 24 Setembro, Segunda-feira

    Tempo Temperatura Precipitação Vento Pressão Humidade
    00:00 +23°C° 0 mm 2 m/s 691 mmHg 86%
    01:00 +21°C° 0 mm 2 m/s 691 mmHg 89%
    02:00 +21°C° 0.1 mm 2 m/s 691 mmHg 88%
    03:00 +21°C° 0.1 mm 2 m/s 690 mmHg 88%
    04:00 +22°C° 0.1 mm 1 m/s 690 mmHg 87%
    05:00 +21°C° 0 mm 2 m/s 691 mmHg 86%
    06:00 +21°C° 0 mm 2 m/s 691 mmHg 85%
    07:00 +21°C° 0 mm 2 m/s 691 mmHg 84%
    08:00 +24°C° 0 mm 2 m/s 692 mmHg 74%
    09:00 +27°C° 0 mm 1 m/s 692 mmHg 64%
    10:00 +29°C° 0 mm 1 m/s 693 mmHg 55%
    11:00 +31°C° 0 mm 2 m/s 692 mmHg 49%
    12:00 +32°C° 0 mm 2 m/s 692 mmHg 44%
    13:00 +35°C° 0 mm 2 m/s 691 mmHg 39%
    14:00 +34°C° 0.4 mm 2 m/s 690 mmHg 42%
    15:00 +32°C° 0.4 mm 2 m/s 690 mmHg 45%
    16:00 +31°C° 0.4 mm 2 m/s 689 mmHg 49%
    17:00 +29°C° 3.6 mm 2 m/s 689 mmHg 58%
    18:00 +27°C° 3.6 mm 2 m/s 690 mmHg 67%
    19:00 +26°C° 3.6 mm 1 m/s 690 mmHg 77%
    20:00 +25°C° 4 mm 2 m/s 691 mmHg 81%
    21:00 +24°C° 4 mm 2 m/s 691 mmHg 84%
    22:00 +24°C° 4 mm 2 m/s 692 mmHg 88%
    23:00 +23°C° 0.6 mm 2 m/s 692 mmHg 90%

    Depois de amanhã, 25 Setembro, Terça-feira

    Tempo Temperatura Precipitação Vento Pressão Humidade
    00:00 +23°C° 0.6 mm 2 m/s 691 mmHg 91%
    01:00 +21°C° 0.6 mm 2 m/s 691 mmHg 92%
    02:00 +21°C° 0.1 mm 2 m/s 691 mmHg 92%
    03:00 +22°C° 0.1 mm 1 m/s 691 mmHg 91%
    04:00 +22°C° 0.1 mm 1 m/s 691 mmHg 90%
    05:00 +22°C° 0.1 mm 1 m/s 691 mmHg 89%
    06:00 +22°C° 0.1 mm 1 m/s 691 mmHg 88%
    07:00 +22°C° 0.1 mm 1 m/s 692 mmHg 87%
    08:00 +24°C° 0 mm 2 m/s 692 mmHg 79%
    09:00 +25°C° 0 mm 2 m/s 692 mmHg 72%
    10:00 +27°C° 0 mm 2 m/s 693 mmHg 65%
    11:00 +28°C° 0 mm 2 m/s 692 mmHg 59%
    12:00 +30°C° 0 mm 2 m/s 691 mmHg 53%
    13:00 +31°C° 0 mm 2 m/s 690 mmHg 47%
    14:00 +32°C° 0 mm 2 m/s 690 mmHg 45%
    15:00 +32°C° 0 mm 2 m/s 689 mmHg 42%
    16:00 +34°C° 0 mm 2 m/s 689 mmHg 40%
    17:00 +31°C° 0 mm 1 m/s 689 mmHg 46%
    18:00 +29°C° 0 mm 1 m/s 689 mmHg 52%
    19:00 +27°C° 0 mm 1 m/s 690 mmHg 58%
    20:00 +26°C° 0 mm 2 m/s 690 mmHg 63%
    21:00 +25°C° 0 mm 2 m/s 691 mmHg 68%
    22:00 +24°C° 0 mm 2 m/s 691 mmHg 73%
    23:00 +24°C° 0 mm 2 m/s 691 mmHg 77%

    26 Setembro, Quarta-feira

    Tempo Temperatura Precipitação Vento Pressão Humidade
    00:00 +23°C° 0 mm 2 m/s 691 mmHg 81%
    01:00 +22°C° 0 mm 1 m/s 691 mmHg 85%
    02:00 +22°C° 0.1 mm 1 m/s 691 mmHg 86%
    03:00 +22°C° 0.1 mm 1 m/s 690 mmHg 88%
    04:00 +20°C° 0.1 mm 0 m/s 690 mmHg 89%
    05:00 +22°C° 0.4 mm 1 m/s 691 mmHg 87%
    06:00 +22°C° 0.4 mm 1 m/s 691 mmHg 86%
    07:00 +22°C° 0.4 mm 1 m/s 692 mmHg 84%
    08:00 +25°C° 0.2 mm 1 m/s 692 mmHg 74%
    09:00 +28°C° 0.2 mm 1 m/s 693 mmHg 64%
    10:00 +31°C° 0.2 mm 1 m/s 694 mmHg 54%
    11:00 +32°C° 0 mm 1 m/s 693 mmHg 48%
    12:00 +32°C° 0 mm 0 m/s 692 mmHg 43%
    13:00 +33°C° 0 mm 0 m/s 691 mmHg 38%
    14:00 +33°C° 0 mm 0 m/s 690 mmHg 36%
    15:00 +35°C° 0 mm 1 m/s 690 mmHg 35%
    16:00 +34°C° 0 mm 1 m/s 689 mmHg 34%
    17:00 +32°C° 0 mm 1 m/s 689 mmHg 40%
    18:00 +30°C° 0 mm 1 m/s 690 mmHg 46%
    19:00 +28°C° 0 mm 1 m/s 690 mmHg 52%
    20:00 +27°C° 0 mm 1 m/s 690 mmHg 57%
    21:00 +26°C° 0 mm 2 m/s 691 mmHg 62%
    22:00 +25°C° 0 mm 2 m/s 691 mmHg 66%
    23:00 +25°C° 0 mm 2 m/s 691 mmHg 71%

    27 Setembro, Quinta-feira

    Tempo Temperatura Precipitação Vento Pressão Humidade
    00:00 +24°C° 0 mm 2 m/s 690 mmHg 75%
    01:00 +23°C° 0 mm 2 m/s 690 mmHg 79%
    02:00 +21°C° 0 mm 2 m/s 690 mmHg 81%
    03:00 +21°C° 0 mm 2 m/s 690 mmHg 83%
    04:00 +22°C° 0 mm 1 m/s 690 mmHg 85%
    05:00 +22°C° 0.1 mm 1 m/s 690 mmHg 84%
    06:00 +22°C° 0.1 mm 1 m/s 691 mmHg 82%
    07:00 +22°C° 0.1 mm 1 m/s 692 mmHg 81%
    08:00 +25°C° 0.2 mm 1 m/s 692 mmHg 70%
    09:00 +28°C° 0.2 mm 1 m/s 692 mmHg 60%
    10:00 +30°C° 0.2 mm 1 m/s 693 mmHg 49%
    11:00 +32°C° 0 mm 1 m/s 692 mmHg 45%
    12:00 +34°C° 0 mm 2 m/s 691 mmHg 40%
    13:00 +35°C° 0 mm 2 m/s 690 mmHg 36%
    14:00 +35°C° 0 mm 2 m/s 690 mmHg 37%
    15:00 +34°C° 0 mm 2 m/s 689 mmHg 38%
    16:00 +34°C° 0 mm 2 m/s 689 mmHg 39%
    17:00 +31°C° 0.2 mm 2 m/s 689 mmHg 45%
    18:00 +30°C° 0.2 mm 2 m/s 689 mmHg 50%
    19:00 +28°C° 0.2 mm 2 m/s 690 mmHg 55%
    20:00 +27°C° 0 mm 2 m/s 690 mmHg 59%
    21:00 +26°C° 0 mm 2 m/s 690 mmHg 64%
    22:00 +25°C° 0 mm 2 m/s 691 mmHg 68%
    23:00 +24°C° 0 mm 2 m/s 690 mmHg 72%

    28 Setembro, Sexta-feira

    Tempo Temperatura Precipitação Vento Pressão Humidade
    00:00 +23°C° 0 mm 2 m/s 690 mmHg 76%
    01:00 +21°C° 0 mm 2 m/s 690 mmHg 80%
    02:00 +21°C° 0.1 mm 2 m/s 690 mmHg 81%
    03:00 +21°C° 0.1 mm 2 m/s 690 mmHg 83%
    04:00 +21°C° 0.1 mm 1 m/s 690 mmHg 84%
    05:00 +21°C° 0.2 mm 1 m/s 690 mmHg 83%
    06:00 +22°C° 0.2 mm 1 m/s 691 mmHg 82%
    07:00 +20°C° 0.2 mm 0 m/s 691 mmHg 81%
    08:00 +25°C° 0 mm 1 m/s 692 mmHg 71%
    09:00 +27°C° 0 mm 1 m/s 692 mmHg 62%
    10:00 +30°C° 0 mm 1 m/s 692 mmHg 52%
    11:00 +32°C° 0 mm 1 m/s 691 mmHg 46%
    12:00 +34°C° 0 mm 1 m/s 690 mmHg 40%
    13:00 +36°C° 0 mm 1 m/s 690 mmHg 33%
    14:00 +35°C° 0 mm 1 m/s 689 mmHg 34%
    15:00 +35°C° 0 mm 1 m/s 689 mmHg 35%
    16:00 +34°C° 0 mm 1 m/s 688 mmHg 36%
    17:00 +32°C° 0.2 mm 1 m/s 688 mmHg 43%
    18:00 +30°C° 0.2 mm 1 m/s 689 mmHg 49%
    19:00 +28°C° 0.2 mm 1 m/s 689 mmHg 56%
    20:00 +27°C° 0.1 mm 1 m/s 689 mmHg 61%
    21:00 +26°C° 0.1 mm 2 m/s 690 mmHg 66%
    22:00 +25°C° 0.1 mm 2 m/s 690 mmHg 71%
    23:00 +24°C° 0 mm 2 m/s 690 mmHg 74%
    Mostrar mais